Ketchikan, AK

5:31 PM AKST on December 12, 2018 (GMT -0900)
Ketchikan International

Weather History for PAKT - October, 2018

Change the Weather History Date:

Thursday, October 18, 2018

  Actual Average Record
Temperature  
Mean Temperature 49 °F -  
Max Temperature 52 °F 50 °F 59 °F (1960)
Min Temperature 46 °F 40 °F 28 °F (2004)
Degree Days  
Heating Degree Days 16    
Moisture  
Dew Point 47 °F    
Average Humidity 89    
Maximum Humidity 100    
Minimum Humidity 80    
Precipitation  
Precipitation 0.01 in - - ()
Sea Level Pressure  
Sea Level Pressure 30.19 in    
Wind  
Wind Speed 2 mph (ESE)    
Max Wind Speed 9 mph    
Max Gust Speed -    
Visibility 9 miles    
Events      
Averages and records for this station are not official NWS values.
T = Trace of Precipitation, MM = Missing Value Source: NWS Daily Summary

Daily Weather History Graph

Daily Weather History Graph

Search for Another Location

Airport or City:

Astronomy

Oct. 18, 2018 Rise Set
Actual Time 7:23 AM AKDT 5:39 PM AKDT
Civil Twilight 6:46 AM AKDT 6:16 PM AKDT
Nautical Twilight 6:03 AM AKDT 6:58 PM AKDT
Astronomical Twilight 5:21 AM AKDT 7:41 PM AKDT
Moon 4:10 PM AKDT (10/18) 12:06 AM AKDT (10/18)
Length of Visible Light 11h 30m
Length of Day
10h 16m
Waxing Gibbous, 69% of the Moon is Illuminated
Oct 18
Waxing Gibbous
Oct 24
Full
Oct 31
Last Quarter
Nov 7
New
Nov 15
First Quarter

Hourly Weather History & Observations

Time (AKDT) Temp. Dew Point Humidity Pressure Visibility Wind Dir Wind Speed Gust Speed Precip Events Conditions
12:53 AM 50.0 °F 48.0 °F 93% 30.20 in 10.0 mi Calm Calm - N/A   Overcast
1:53 AM 50.0 °F 48.0 °F 93% 30.20 in 10.0 mi Calm Calm - N/A   Overcast
2:37 AM 50.0 °F 48.0 °F 93% 30.20 in 10.0 mi Calm Calm - N/A   Overcast
2:53 AM 50.0 °F 48.0 °F 93% 30.21 in 9.0 mi Calm Calm - N/A   Overcast
3:53 AM 48.9 °F 48.0 °F 97% 30.22 in 6.0 mi Calm Calm - N/A   Overcast
4:31 AM 48.9 °F 48.0 °F 97% 30.21 in 10.0 mi Calm Calm - N/A   Overcast
4:48 AM 48.2 °F 46.4 °F 93% 30.22 in 8.0 mi NW 4.6 mph - N/A   Overcast
4:53 AM 48.9 °F 46.9 °F 93% 30.22 in 6.0 mi NW 4.6 mph - N/A   Overcast
5:53 AM 48.0 °F 46.9 °F 96% 30.22 in 5.0 mi Calm Calm - N/A   Overcast
6:21 AM 48.2 °F 46.4 °F 93% 30.22 in 10.0 mi NNW 3.5 mph - N/A   Overcast
6:53 AM 46.4 °F 44.6 °F 93% 30.23 in 10.0 mi Calm Calm - N/A   Overcast
7:02 AM 46.4 °F 44.6 °F 93% 30.22 in 10.0 mi Calm Calm - N/A   Overcast
7:53 AM 46.4 °F 46.4 °F 100% 30.23 in 10.0 mi Calm Calm - N/A   Overcast
8:53 AM 48.0 °F 46.9 °F 96% 30.23 in 10.0 mi Variable 3.5 mph - N/A   Mostly Cloudy
9:53 AM 50.0 °F 46.4 °F 87% 30.23 in 10.0 mi North 4.6 mph - N/A   Mostly Cloudy
10:53 AM 50.0 °F 46.4 °F 87% 30.24 in 10.0 mi NNW 5.8 mph - N/A   Scattered Clouds
11:53 AM 50.0 °F 46.4 °F 87% 30.22 in 10.0 mi NNW 9.2 mph - N/A   Overcast
12:53 PM 51.8 °F 46.4 °F 82% 30.21 in 10.0 mi North 4.6 mph - N/A   Overcast
1:53 PM 51.8 °F 46.4 °F 82% 30.20 in 10.0 mi East 5.8 mph - N/A   Overcast
2:53 PM 52.0 °F 46.9 °F 83% 30.18 in 10.0 mi SSE 4.6 mph - N/A   Overcast
3:53 PM 52.0 °F 46.9 °F 83% 30.17 in 10.0 mi SE 3.5 mph - N/A   Partly Cloudy
4:53 PM 51.1 °F 46.9 °F 86% 30.15 in 10.0 mi ESE 4.6 mph - N/A   Overcast
5:53 PM 50.0 °F 46.9 °F 89% 30.15 in 10.0 mi SE 3.5 mph - N/A   Overcast
6:53 PM 50.0 °F 46.9 °F 89% 30.14 in 10.0 mi SE 5.8 mph - N/A   Overcast
7:53 PM 50.0 °F 46.9 °F 89% 30.13 in 10.0 mi SE 4.6 mph - 0.00 in   Overcast
8:53 PM 51.1 °F 45.0 °F 80% 30.12 in 10.0 mi Variable 3.5 mph - 0.00 in   Overcast
9:53 PM 51.1 °F 45.0 °F 80% 30.11 in 10.0 mi SSE 9.2 mph - 0.00 in   Overcast
10:53 PM 51.1 °F 45.0 °F 80% 30.09 in 10.0 mi South 6.9 mph - 0.01 in   Overcast
11:53 PM 52.0 °F 46.0 °F 80% 30.08 in 10.0 mi South 8.1 mph - N/A   Overcast